Regional Weather Roundup
Issued by NWS Wakefield, VA

Home | Current Version | Previous Version | Text Only | Print | Product List | Glossary Off
Versions: 1 2 3 4 5 6 7 8 9 10 11 12 13 14 15 16 17 18 19 20 21 22 23 24 25 26 27

000
ASUS41 KAKQ 221610
RWRAKQ

REGIONAL WEATHER ROUNDUP
NATIONAL WEATHER SERVICE WAKEFIELD VA
1200 PM EDT WED OCT 22 2014

Note: "fair" indicates few or no clouds below 12,000 feet with no
significant weather and/or obstructions to visibility. * = Denotes
station may not report precipitation (e.g., rain,snow,etc.),
thunder or fog.

VAZ042-051-052>054-056-221700-
NORTHERN VIRGINIA

CITY           SKY/WX    TMP DP  RH WIND       PRES   REMARKS
WASH NATIONAL  LGT RAIN  57  50  77 N15       29.94R
DULLES         LGT RAIN  55  48  76 N17G25    29.96R
FORT BELVOIR   HVY RAIN  54  51  89 NW9G18    29.94R FOG
QUANTICO       LGT RAIN  56  50  80 N15G25    29.94S
FREDERICKSBRG* LGT RAIN  56  55  95 NW8G20    29.93S
STAFFORD*      LGT RAIN  55  55 100 NW12      29.98S
WARRENTON      CLOUDY    58  53  84 NW15G25   29.95S
CULPEPER*      PTSUNNY   59  48  67 N17G31    29.97S
MANASSAS*      NOT AVBL
LEESBURG*      LGT RAIN  55  52  88 N14G23    29.98R
WINCHESTER     CLOUDY    55  43  62 N12G22    30.01S
FRONT ROYAL*   CLOUDY    54  45  71 NW10      30.01S
LURAY*         CLOUDY    55  46  71 N15G23    30.02R
$$

VAZ048-049-060>072-079>083-221700-
CENTRAL AND SOUTH CENTRAL VIRGINIA...AND NORTH CENTRAL NORTH CAROLINA

CITY           SKY/WX    TMP DP  RH WIND       PRES   REMARKS
RICHMOND       RAIN      54  51  90 NW18G26   29.92S FOG
CHESTERFIELD*  CLOUDY    54  43  66 NW16G26   29.95R
PETERSBURG*    LGT RAIN  53  50  89 NW15G21   29.94R
HANOVER        LGT RAIN  52  51  97 NW12G18   29.95R
TAPPAHANNOCK*  CLOUDY    54  50  86 NW7       29.90R
CHARLOTTSVILLE PTSUNNY   60  44  55 N17G30    29.98F
ORANGE*          N/A     57  46  67 NW20      29.98S
LOUISA*        CLOUDY    55  48  76 NW9G16    29.95R
FARMVILLE*     MOSUNNY   63  46  55 NW8       29.97R
CREWE*         CLOUDY    55  48  78 NW10      29.97R
FORT PICKETT*  CLOUDY    53  50  89 NW8       29.97R
LUNENBURG*     CLOUDY    57  49  75 NW12G18   29.97S
SOUTH HILL*    PTSUNNY   57  48  72 N10G16    30.02S
LAWRENCEVILLE* CLOUDY    54  49  83 NW9G17    29.95S
ROANOKE RAPIDS PTSUNNY   55  46  71 NW22G28   29.94S
RALEIGH        MOSUNNY   61  41  47 N12G18    30.00S
$$

VAZ088>098-221700-
SOUTHEAST VIRGINIA

CITY           SKY/WX    TMP DP  RH WIND       PRES   REMARKS
NORFOLK        CLOUDY    59  52  77 NW13      29.83F
VIRGINIA BEACH LGT RAIN  59  55  87 NW12      29.81F FOG
NORFOLK NAVAL  CLOUDY    60  51  72 NW22G30   29.85S
WEST POINT*    CLOUDY    58  52  79 NW9G17    29.89S
NEWPORT NEWS   CLOUDY    60  52  74 NW13      29.85S
LANGLEY AFB    CLOUDY    57  54  90 NW16G25   29.84S
FORT EUSTIS    CLOUDY    56  56 100 NW17G24   29.85R
WILLIAMSBURG*  MOSUNNY   55  54  94 NW16G24   29.88S
HR EXEC AP*    CLOUDY    54  50  87 NW7       29.88S
FRANKLIN*      CLOUDY    54  52  94 NW10G17   29.89S
WAKEFIELD      LGT RAIN  54  51  90 VRB7      29.90S FOG
$$

VAZ020-022-025-037-045-221700-
WEST CENTRAL AND SOUTHWEST VIRGINIA

CITY           SKY/WX    TMP DP  RH WIND       PRES   REMARKS
STAUNTON*      MOSUNNY   59  41  51 N16G25    30.03F
HOT SPRINGS VA CLOUDY    44  39  81 NW14      30.04R
LYNCHBURG      PTSUNNY   57  41  55 NW8       30.03R
DANVILLE       SUNNY     63  41  44 NW16G25   30.02S
SOUTH BOSTON*  NOT AVBL
MARTINSVILLE   SUNNY     60  41  49 NW16G25   30.07F
ROANOKE        CLOUDY    58  40  51 NW13G23   30.09R
BLACKSBURG     PTSUNNY   50  45  81 NW9       30.11S
DUBLIN*        CLOUDY    49  42  77 NW8G21    30.13R
MARION*        CLOUDY    47  40  76 NW9G16    30.17R
HILLSVILLE*    CLOUDY    47  39  73 NW15      30.10R
RICHLANDS*     CLOUDY    45  42  90 NW8       30.17S
WISE*          FOG       41  41 100 N6        30.21S VSB 1
ABINGDON*      CLOUDY    47  41  80 N6        30.19S
$$

MDZ021>025-VAZ099-100-221700-
SOUTHERN MARYLAND AND THE DELMARVA PENINSULA

CITY           SKY/WX    TMP DP  RH WIND       PRES   REMARKS
PATUXENT RIVER LGT RAIN  55  53  93 NW21G28   29.86R FOG
BAY BRIDGE APT RAIN      55  52  88 N17G25    29.89S
LEONARDTOWN    CLOUDY    54  50  87 NW7G20    29.89R
DOVER          LGT RAIN  57  55  94 N16       29.83R
GEORGETOWN     CLOUDY    59  52  77 N10G20    29.82S
EASTON         RAIN      57  57 100 N8        29.90S
CAMBRIDGE      CLOUDY    59  52  77 N12G21    29.84S VSB<1/4
SALISBURY      CLOUDY    62  53  72 N12       29.81R
OCEAN CITY     CLOUDY    58  53  84 N12G21    29.79S
WALLOPS ISLAND CLOUDY    62  55  77 N13G20    29.79S
ACCOMACK*      CLOUDY    59  52  77 N14       29.80S
$$

NCZ012>017-030>032-221700-
EASTERN NORTH CAROLINA

CITY           SKY/WX    TMP DP  RH WIND       PRES   REMARKS
ELIZABETH CITY CLOUDY    58  50  75 NW14      29.85F
AHOSKIE*       CLOUDY    55  48  78 N9        29.92R
EDENTON*       CLOUDY    56  50  79 NW14G22   29.89R
CURRITUCK*     CLOUDY   N/A N/A N/A W10G18    29.84S
KILL DEVIL HLS CLOUDY    58  51  77 NW7G17    29.82F
MANTEO         CLOUDY    57  49  76 W14G22    29.85S
CAPE HATTERAS  PTSUNNY   58  51  78 NW13G20   29.87S
TARBORO*       CLOUDY    60  48  63 NW14G24   29.94F
GOLDSBORO      MOSUNNY   63  48  57 N14G23    29.95R
WASHINGTON     CLOUDY    57  47  69 NW8G23    29.93R
GREENVILLE     PTSUNNY   61  48  63 NW10      29.95S
NEW BERN       PTSUNNY   64  46  52 W12       29.93F
WILMINGTON     SUNNY     63  44  50 NW16      29.98S
$$

VAZ048-221700-
ELSEWHERE

CITY           SKY/WX    TMP DP  RH WIND       PRES   REMARKS
HARRISBURG PA  LGT RAIN  53  49  86 NW12      29.98R
BALTIMORE      CLOUDY    54  51  90 NW10      29.91S
ANNAPOLIS      CLOUDY    57  53  86 N15       29.90R
ANDREWS AFB    LGT RAIN  54  52  94 N17G23    29.92R
WILMINGTON DE  LGT RAIN  56  52  86 N16       29.90R
PHILADELPHIA   HVY RAIN  56  51  84 NE18G25   29.88S
WILDWOOD NJ*   CLOUDY    59  52  77 N13G21    29.82R
ATLANTIC CITY  CLOUDY    60  54  80 NE22G30   29.81S
HENDERSON NC   PTSUNNY   59  42  54 NW14      29.99S
GREENSBORO     MOSUNNY   61  40  45 N13G20    30.04S
ROCKY MOUNT    MOSUNNY   62  45  53 NW18G28   29.96S
FAYETTEVILLE   SUNNY     65  41  41 N12       30.00S
CHARLOTTE      SUNNY     60  36  40 NW14G21   30.10R
$$

VAZ100-221700-
MARINE

STATION/POSITION TIME  TEMP    WIND        PRES    WAVE   SWELL
                       AIR SEA DIR/SP/G            HT/PER HT/PER
                 (UTC) (F)     (DEG/KT/KT) (MB)    (FT/S) (FT/S)
44066 TX TWR #4  1600   58 66   60/ 17/ 19 1007.6R
CAPE MAY NJ      1600   59 67   10/  6/ 12 1008.9F
LEWES DE         1600   60 62   30/ 21/ 26 1009.2S
15NM E FENWICK I 1600   62 66   10/ 23/ 25 1007.0F   7/ 6   2/10
OCEAN-CITY-INLET 1600   60 65   10/ 17/ 23 1008.1F
WACHAPREAGUE VA  1600   58 63  340/  6/ 11 1008.9F
THOMAS POINT MD  1600   56 64  360/ 21/ 25 1012.9R
GOOSES REEF MD   1600   58      10/ 23/ 27 1011.6R
COVE POINT MD    1600   57      10/ 20/ 27 1010.9R
SOLOMONS ISLAND  1600      65                N/A
BISHOPS HEAD MD  1600   58 60  340/ 13/ 17 1009.8R
PINEY POINT MD   1600          360/ 19/ 22   N/A
POTOMAC MD       1600   57     350/ 16/ 19 1010.1R
CAMBRIDGE MD     1600   57 63  350/ 14/ 18 1010.5S
LEWISETTA VA     1600   57 63  350/ 14/ 21 1010.8R
RAPPAHANNOCK LGT 1600          350/ 26/ 28 1009.6R
STINGRAY PT      1600   58     340/ 19/ 23 1010.5S
YORK RVR RNG VA  1600   58     330/ 23/ 29 1009.6S
YORKTOWN VA      1600   57 67  320/ 26/ 29 1010.2R
JAMESTOWN VA     1600   55     340/ 17/ 21   N/A
DOMINION TERM VA 1600   58     320/ 12/ 23 1010.3F
KIPTOPEKE VA     1600      69  330/ 27/ 33   N/A
CHES BAY BRIDGE  1600   58 67  290/ 23/ 28 1009.3R
CHESAPEAKE LGHT  1500   56     310/ 23/ 26 1009.8R
WILLOUBY STN VA  1600   57     320/ 21/ 25 1009.0R
S CRANEY ISL VA  1600          280/ 13/ 22 1010.1F
CAPE HENRY BUOY  1600      68                N/A     5/ 5
1ST LANDING BUOY 1600   59     320/ 19/ 25 1009.4S
CAPE CHARLES BUO 1600      68                N/A     4/ 4   2/11
64NM E OF VA BCH 1600   60 69  300/ 23/ 27 1007.0F   6/ 5   2/11
DUCK PIER NC     1600   56 68  300/ 23/ 26 1009.1F
44100 DUCK FRF   1600      71                N/A     4/ 5   2/11
44056 DUCK FRF   1600                        N/A     3/10
OREGON INLET NC  1600   57 68  290/ 17/ 22 1010.3S
HATTERAS NC      1600   59 69  290/ 19/ 22 1011.7R
DIAMOND SHLS NC  1600   61     290/ 21/ 25 1010.9S   5/ 5   2/10
CAPE LOOKOUT NC  1600   60     300/ 13/ 17 1012.9S
$$



USA.gov is the U.S. government's official web portal to all federal, state and local government web resources and services.